Stigler, OK

7:14 AM CDT on July 30, 2016 (GMT -0500)
Stigler

Weather History for KGZL - December, 2012

Change the Weather History Date:

Wednesday, December 19, 2012

  Actual Average (KJSV) Record (KJSV)
Temperature  
Mean Temperature 54 °F -  
Max Temperature 68 °F 53 °F 132 °F (2004)
Min Temperature 41 °F 30 °F 10 °F (1981)
Degree Days  
Heating Degree Days 10    
Growing Degree Days 4 (Base 50)    
Moisture  
Dew Point 47 °F    
Average Humidity 72    
Maximum Humidity 83    
Minimum Humidity 31    
Precipitation  
Precipitation 0.24 in - - ()
Sea Level Pressure  
Sea Level Pressure 29.66 in    
Wind  
Wind Speed 9 mph (SE)    
Max Wind Speed 17 mph    
Max Gust Speed 33 mph    
Visibility 9 miles    
Events Rain    
Averages and records for this station are not official NWS values.
T = Trace of Precipitation, MM = Missing Value Source: NWS Daily Summary

Daily Weather History Graph

Daily Weather History Graph

Search for Another Location

Airport or City:

Trip Planner

Search our weather history database for the weather conditions in past years. The results will help you decide how hot, cold, wet, or windy it might be!

Date:

Astronomy

Dec. 19, 2012 Rise Set
Actual Time 7:24 AM CST 5:11 PM CST
Civil Twilight 6:56 AM CST 5:39 PM CST
Nautical Twilight 6:24 AM CST 6:11 PM CST
Astronomical Twilight 5:53 AM CST 6:42 PM CST
Moon 11:48 AM CST (12/19) No Moon Set
Length of Visible Light 10h 43m
Length of Day
9h 46m
Waxing Crescent, 45% of the Moon is Illuminated
Dec 19
Waxing Crescent
Dec 19
First Quarter
Dec 28
Full
Jan 4
Last Quarter
Jan 11
New

Hourly Weather History & Observations

Time (CST) Temp. Windchill Dew Point Humidity Pressure Visibility Wind Dir Wind Speed Gust Speed Precip Events Conditions
12:15 AM 44.6 °F 40.7 °F 35.6 °F 71% 29.81 in 9.0 mi East 6.9 mph - N/A   Clear
12:35 AM 46.4 °F - 35.6 °F 66% 29.81 in 10.0 mi Calm Calm - N/A   Partly Cloudy
12:55 AM 44.6 °F - 35.6 °F 71% 29.80 in 10.0 mi Calm Calm - N/A   Clear
1:15 AM 41.0 °F - 35.6 °F 81% 29.80 in 9.0 mi Calm Calm - N/A   Clear
1:35 AM 42.8 °F 38.6 °F 35.6 °F 76% 29.80 in 4.0 mi ENE 6.9 mph - N/A   Haze
1:55 AM 41.0 °F 36.4 °F 35.6 °F 81% 29.79 in 5.0 mi ESE 6.9 mph - N/A   Haze
2:15 AM 44.6 °F 39.2 °F 35.6 °F 71% 29.79 in 4.0 mi East 10.4 mph - N/A   Haze
2:35 AM 44.6 °F 39.2 °F 35.6 °F 71% 29.78 in 10.0 mi East 10.4 mph - N/A   Partly Cloudy
2:55 AM 44.6 °F 38.8 °F 35.6 °F 71% 29.78 in 10.0 mi ESE 11.5 mph - N/A   Clear
3:15 AM 44.6 °F 38.1 °F 35.6 °F 71% 29.77 in 10.0 mi ESE 13.8 mph - N/A   Clear
3:35 AM 46.4 °F 40.7 °F 35.6 °F 66% 29.76 in 10.0 mi ESE 12.7 mph - N/A   Clear
3:55 AM 46.4 °F 40.7 °F 35.6 °F 66% 29.76 in 10.0 mi ESE 12.7 mph - N/A   Clear
4:15 AM 46.4 °F 40.7 °F 35.6 °F 66% 29.76 in 10.0 mi ESE 12.7 mph - N/A   Clear
4:35 AM 46.4 °F 40.4 °F 35.6 °F 66% 29.76 in 10.0 mi ESE 13.8 mph - N/A   Clear
4:55 AM 46.4 °F 41.1 °F 35.6 °F 66% 29.76 in 10.0 mi East 11.5 mph - N/A   Clear
5:15 AM 46.4 °F 41.5 °F 37.4 °F 71% 29.75 in 10.0 mi ESE 10.4 mph - N/A   Clear
5:35 AM 46.4 °F 41.1 °F 37.4 °F 71% 29.75 in 10.0 mi ESE 11.5 mph - N/A   Partly Cloudy
5:55 AM 46.4 °F 41.1 °F 37.4 °F 71% 29.75 in 10.0 mi ESE 11.5 mph - N/A   Partly Cloudy
6:15 AM 46.4 °F 40.7 °F 37.4 °F 71% 29.75 in 10.0 mi ESE 12.7 mph - N/A   Partly Cloudy
6:35 AM 46.4 °F 40.4 °F 37.4 °F 71% 29.74 in 10.0 mi ESE 13.8 mph - N/A   Partly Cloudy
6:55 AM 46.4 °F 40.4 °F 37.4 °F 71% 29.74 in 10.0 mi East 13.8 mph - N/A   Clear
7:15 AM 46.4 °F 41.1 °F 37.4 °F 71% 29.75 in 10.0 mi ESE 11.5 mph - N/A   Clear
7:35 AM 46.4 °F 40.7 °F 39.2 °F 76% 29.75 in 9.0 mi ESE 12.7 mph - N/A   Clear
7:55 AM 48.2 °F - 41.0 °F 76% 29.76 in 9.0 mi ESE 12.7 mph - N/A   Clear
8:15 AM 48.2 °F - 41.0 °F 76% 29.77 in 10.0 mi ESE 10.4 mph - N/A   Scattered Clouds
8:35 AM 50.0 °F - 41.0 °F 71% 29.76 in 9.0 mi ESE 10.4 mph - N/A   Overcast
8:55 AM 50.0 °F - 44.6 °F 82% 29.75 in 9.0 mi ESE 11.5 mph - N/A   Overcast
9:15 AM 51.8 °F - 44.6 °F 76% 29.74 in 9.0 mi East 9.2 mph - N/A   Overcast
9:35 AM 53.6 °F - 46.4 °F 77% 29.74 in 8.0 mi ESE 10.4 mph - N/A   Overcast
9:55 AM 55.4 °F - 46.4 °F 72% 29.73 in 9.0 mi ESE 9.2 mph - N/A   Overcast
10:15 AM 57.2 °F - 48.2 °F 72% 29.74 in 9.0 mi East 8.1 mph - N/A   Overcast
10:35 AM 57.2 °F - 50.0 °F 77% 29.73 in 8.0 mi East 8.1 mph - N/A   Overcast
10:55 AM 57.2 °F - 50.0 °F 77% 29.72 in 9.0 mi East 10.4 mph - N/A   Overcast
11:15 AM 59.0 °F - 50.0 °F 72% 29.70 in 8.0 mi East 10.4 mph - N/A   Overcast
11:35 AM 59.0 °F - 50.0 °F 72% 29.70 in 9.0 mi ESE 9.2 mph - N/A   Overcast
11:55 AM 62.6 °F - 55.4 °F 77% 29.68 in 9.0 mi South 10.4 mph 17.3 mph N/A   Overcast
12:15 PM 66.2 °F - 57.2 °F 73% 29.66 in 9.0 mi South 10.4 mph - N/A   Overcast
12:35 PM 66.2 °F - 57.2 °F 73% 29.65 in 9.0 mi South 9.2 mph 18.4 mph N/A   Overcast
12:55 PM 66.2 °F - 57.2 °F 73% 29.63 in 8.0 mi SSE 10.4 mph - N/A   Overcast
1:35 PM 68.0 °F - 57.2 °F 68% 29.61 in 10.0 mi South 9.2 mph 19.6 mph N/A   Overcast
1:55 PM 68.0 °F - 57.2 °F 68% 29.61 in 9.0 mi South 11.5 mph 16.1 mph N/A   Mostly Cloudy
2:15 PM 68.0 °F - 57.2 °F 68% 29.60 in 9.0 mi South 12.7 mph 18.4 mph N/A   Overcast
2:35 PM 68.0 °F - 57.2 °F 68% 29.59 in 9.0 mi SSE 8.1 mph - N/A   Overcast
2:55 PM 68.0 °F - 57.2 °F 68% 29.58 in 9.0 mi SSE 13.8 mph 17.3 mph N/A   Overcast
3:15 PM 68.0 °F - 57.2 °F 68% 29.58 in 8.0 mi SSE 11.5 mph 19.6 mph N/A   Overcast
3:35 PM 68.0 °F - 57.2 °F 68% 29.58 in 9.0 mi South 12.7 mph 16.1 mph N/A   Overcast
3:55 PM 68.0 °F - 57.2 °F 68% 29.57 in 9.0 mi SSE 13.8 mph 20.7 mph N/A   Scattered Clouds
4:15 PM 68.0 °F - 57.2 °F 68% 29.55 in 10.0 mi SSE 12.7 mph 18.4 mph N/A   Partly Cloudy
4:35 PM 68.0 °F - 57.2 °F 68% 29.56 in 10.0 mi SSE 9.2 mph 16.1 mph N/A   Clear
4:55 PM 68.0 °F - 57.2 °F 68% 29.56 in 9.0 mi SSE 9.2 mph - N/A   Clear
5:15 PM 68.0 °F - 57.2 °F 68% 29.56 in 10.0 mi South 9.2 mph 18.4 mph N/A   Clear
5:35 PM 68.0 °F - 59.0 °F 73% 29.56 in 10.0 mi South 8.1 mph - N/A   Partly Cloudy
5:55 PM 66.2 °F - 59.0 °F 78% 29.56 in 10.0 mi SSE 8.1 mph - N/A   Scattered Clouds
6:15 PM 66.2 °F - 59.0 °F 78% 29.54 in 10.0 mi SSE 9.2 mph - N/A   Partly Cloudy
6:35 PM 68.0 °F - 59.0 °F 73% 29.55 in 10.0 mi South 10.4 mph - N/A   Clear
6:55 PM 68.0 °F - 59.0 °F 73% 29.55 in 10.0 mi South 10.4 mph - N/A   Clear
7:15 PM 68.0 °F - 59.0 °F 73% 29.54 in 7.0 mi South 11.5 mph - N/A   Partly Cloudy
7:35 PM 68.0 °F - 59.0 °F 73% 29.52 in 10.0 mi South 8.1 mph - N/A   Scattered Clouds
7:55 PM 66.2 °F - 59.0 °F 78% 29.51 in 5.0 mi South 12.7 mph 21.9 mph 0.01 in Rain Light Rain
8:15 PM 66.2 °F - 60.8 °F 83% 29.50 in 7.0 mi West 8.1 mph - 0.01 in Rain Light Rain
8:35 PM 57.2 °F - 51.8 °F 82% 29.55 in 5.0 mi South 17.3 mph 32.2 mph 0.17 in Rain Light Rain
8:55 PM 57.2 °F - 50.0 °F 77% 29.52 in 7.0 mi SW 16.1 mph 23.0 mph 0.19 in Rain Light Rain
9:15 PM 57.2 °F - 50.0 °F 77% 29.49 in 5.0 mi South 12.7 mph 18.4 mph 0.03 in Rain Rain
9:35 PM 57.2 °F - 51.8 °F 82% 29.49 in 10.0 mi South 11.5 mph 17.3 mph 0.04 in   Mostly Cloudy
9:55 PM 57.2 °F - 50.0 °F 77% 29.49 in 10.0 mi SSW 5.8 mph - 0.04 in   Mostly Cloudy
10:15 PM 57.2 °F - 50.0 °F 77% 29.52 in 9.0 mi SW 12.7 mph - N/A   Overcast
10:35 PM 57.2 °F - 50.0 °F 77% 29.53 in 8.0 mi WSW 13.8 mph - N/A   Overcast
10:55 PM 57.2 °F - 50.0 °F 77% 29.54 in 7.0 mi West 10.4 mph - N/A   Overcast
11:15 PM 57.2 °F - 46.4 °F 67% 29.55 in 8.0 mi West 10.4 mph - N/A   Overcast
11:35 PM 57.2 °F - 39.2 °F 51% 29.56 in 9.0 mi West 17.3 mph 29.9 mph N/A   Overcast
11:55 PM 57.2 °F - 26.6 °F 31% 29.57 in 10.0 mi West 17.3 mph 33.4 mph N/A   Overcast